Tracking 27419 objects as of 10-Jun-2023
HD Live streaming from Space Station
objects crossing your sky now

STARLINK-3100

Track STARLINK-3100 now!
10-day predictions
STARLINK-3100 is classified as:


NORAD ID: 49144
Int'l Code: 2021-082Q
Perigee: 577.0 km
Apogee: 581.4 km
Inclination: 70.0 °
Period: 96.1 minutes
Semi major axis: 6950 km
RCS: Unknown
Launch date: September 14, 2021
Source: United States (US)
Launch site: AIR FORCE WESTERN TEST RANGE (AFWTR)
Your satellite tracking list
Your tracking list is empty




NASA's NSSDC Master Catalog

Two Line Element Set (TLE):
1 49144U 21082Q   23160.69825301  .00000275  00000-0  30880-4 0  9998
2 49144  70.0001 305.8636 0003188 269.4429  90.6365 14.98329876 95593
Source of the keplerian elements: AFSPC